カタログに戻る

CO3D1

運用中科学SSO
NORAD 64903·PAYLOAD·🇫🇷 France

打ち上げ Jul 26, 2025 から Guiana Space Centre

Loading…

次のパス (今後24時間)

TLE

最新Source: Space-Track

元期: Sep 14, 2026, 13:00 UTC

1 64903U 25156E   26257.54193758  .00001007  00000-0  49653-4 0  9994
2 64903  97.4343 334.8492 0001263  96.3774 263.7605 15.20201413 63103

AllMySatでCO3D1をリアルタイム追跡

Download on the App Store